Location: Chuathbaluk
(61.5726°N, 159.2454°W)
Time: 03:56:54
(UTC+00:00)

Transit 4A - Pass Details

Date: 01 December 2020
Orbit: 864 x 980 km, 66.8° (Epoch: 26 January)

Event Time Altitude Azimuth Distance (km) Brightness Sun altitude
Rises 16:48:03 0° 160° (SSE) 3,648 11.5 -16.7°
Reaches altitude 10° 16:51:33 10° 141° (SE) 2,720 11.2 -16.3°
Maximum altitude 16:55:20 17° 104° (ESE) 2,285 11.1 -15.8°
Drops below altitude 10° 16:59:08 10° 68° (ENE) 2,743 11.1 -15.4°
Sets 17:02:40 0° 49° (NE) 3,694 11.5 -15.0°
